Regional Weather Roundup
Issued by NWS

Home | Current Version | Previous Version | Text Only | Print | Product List | Glossary Off
Versions: 1 2 3 4 5 6 7 8 9 10 11 12 13 14 15 16 17 18 19 20 21 22 23 24 25 26 27 28 29 30 31 32 33 34 35 36 37 38 39 40 41 42 43 44 45 46 47 48 49 50

000
ASUS45 KABQ 301301
RWRNM
NEW MEXICO REGIONAL WEATHER ROUNDUP
NATIONAL WEATHER SERVICE ALBUQUERQUE NM
700 AM MDT MON MAY 30 2016

NOTE: "FAIR" MEANS FEW OR NO CLOUDS BELOW 12,000 FEET AGL WITH NO
       SIGNIFICANT WEATHER OR OBSTRUCTIONS TO VISION.

      THIS PRODUCT IS RELEASED AS TWO VERSIONS.  ONE VERSION NEAR
      THE TOP OF THE HOUR CONTAINING PRELIMINARY DATA FROM ALBUQUERQUE
      AND OTHER STATIONS.  A FINAL VERSION WITH ADDITIONAL DATA IS
      ISSUED ABOUT 10 MINUTES AFTER THE HOUR.

NMZ501-503-504-510>518-301400-
NORTHWEST PLATEAU/NORTHCENTRAL MOUNTAINS

CITY           SKY/WX    TMP DP  RH WIND       PRES   REMARKS
FARMINGTON     FAIR      50  28  42 E8        30.11R
SANTA FE       FAIR      49  43  80 NW3       30.18R
TAOS           FAIR      43  25  49 NW5       30.24R

$$
NMZ402-403-502-505>509-301400-
WESTCENTRAL MOUNTAINS/SOUTHWEST MOUNTAINS

CITY           SKY/WX    TMP DP  RH WIND       PRES   REMARKS
GALLUP         FAIR      41  20  43 NE5       30.19R
GRANTS         FAIR      41  13  31 NW5       30.22R
SILVER CITY      N/A     55  19  24 W7        30.17R

$$
NMZ407-409-411-412-301400-
SOUTHERN DESERTS

CITY           SKY/WX    TMP DP  RH WIND       PRES   REMARKS
LORDSBURG      FAIR      59  32  36 S3        30.08R
DEMING         FAIR      60  36  40 N3        30.10R
HOLLOMAN AFB   FAIR      69  37  31 S8        30.06R
ALAMOGORDO     FAIR      66  37  34 S8        30.06S
T OR C         FAIR      63  28  26 S3        30.10R

$$
NMZ519>523-301400-
CENTRAL VALLEYS/CENTRAL HIGHLANDS

CITY           SKY/WX    TMP DP  RH WIND       PRES   REMARKS
ALBUQUERQUE    FAIR      57  44  62 N9        30.13R
DOUBLE EAGLE   MOSUNNY   50  43  76 NW6       30.16R
CLINES CORNERS FOG       45  44  97 SE7       30.20R VSB<1/4
BELEN          FAIR      54  20  25 CALM      30.14R
SOCORRO        NOT AVBL

$$
NMZ524>526-539-540-301400-
SOUTHCENTRAL MOUNTAINS

CITY           SKY/WX    TMP DP  RH WIND       PRES   REMARKS
RUIDOSO        NOT AVBL

$$
NMZ527>531-301400-
NORTHEAST HIGHLANDS/NORTHEAST PLAINS

CITY           SKY/WX    TMP DP  RH WIND       PRES   REMARKS
LAS VEGAS      FAIR      47  45  93 S7        30.20S
RATON          CLOUDY    51  46  83 N3        30.18R
CLAYTON        PTSUNNY   54  51  90 S10       30.13R

$$
NMZ532>537-301400-
EASTCENTRAL PLAINS

CITY           SKY/WX    TMP DP  RH WIND       PRES   REMARKS
TUCUMCARI      CLOUDY    54  52  93 S3        30.13S
CANNON AFB     CLOUDY    56  56 100 W3        30.14S
CLOVIS AIRPORT CLOUDY    55  50  82 W6        30.14S

$$
NMZ028-029-538-301400-
SOUTHEAST PLAINS

CITY           SKY/WX    TMP DP  RH WIND       PRES   REMARKS
ROSWELL        CLOUDY    63  52  67 SE8       30.11R
ARTESIA        CLOUDY    61  57  88 SE6       30.11R
CARLSBAD       CLOUDY    62  55  77 E3        30.09R
HOBBS          PTSUNNY   57  57 100 VRB5      30.12S


$$




USA.gov is the U.S. government's official web portal to all federal, state and local government web resources and services.